Location: Unspecified
(40.7945°N, 111.1337°W)
Time: 17:10:28
(UTC-06:00)

Hubble Space Telescope - Visible Passes

Search period start: 20 August 2017 00:00
Search period end: 30 August 2017 00:00
Orbit: 538 x 542 km, 28.5° (Epoch: 20 August)

Date Brightness Start Highest point End Pass type
(mag) Time Alt. Az. Time Alt. Az. Time Alt. Az.
20 Aug 3.2 04:38:47 11° SSE 04:38:47 11° SSE 04:39:15 10° SE visible
21 Aug 2.9 06:05:33 10° SW 06:07:32 13° S 06:09:31 10° SSE visible
22 Aug 2.9 05:55:37 10° SW 05:57:18 12° S 05:58:58 10° SSE visible
23 Aug 2.9 05:45:56 10° SSW 05:47:03 11° SSW 05:48:10 10° S visible
